Hauptseite
METAR-TAF:

METAR-TAF

Flughäfen :

Nancy, Frankreich

Breite: 48-41N, Länge: 006-13E, Höhe: 225 m

Beobachtung

Neuester Wetterbericht von vor 15 Minuten, um 12:30 UTC
Wind 6 kt aus Süd/Südwest, variierte zwischen Südost und West
Temperatur 15°C
Luftfeuchtigkeit 55%
Luftdruck 1016 hPa
Sichtweite 10 km oder mehr

METAR: LFSN 261230Z AUTO 21006KT 140V280 9999 SCT035/// BKN046/// BKN054/// ///CB 15/06 Q1016

Zeit: 14:45 (12:45 UTC)


TAF: fehlend

Wetterbeobachtungen und Prognosen von mehr als 4000 Flughäfen (METAR und TAF Bericht).

Die verfügbaren Stationen werden durch gelbe und rote Markierungen auf der Karte dargestellt.

Führen Sie die Maus auf sie, um den Namen der Station zu sehen.

Darauf klicken, um die Beobachtung von Wetterbeobachtungen und Prognosen zu sehen.

Um die Karte zu ändern : klicken Sie auf den grünen Tasten mit einem schwarzen Kreuz Zum Vergrößern, auf den grünen Button mit einem Gedankenstrich zu verkleinern, oder auf die grünen Pfeile für benachbarte Karten.


METAR-TAF: